Location: Guferjoch
(46.7462°N, 8.4506°E)
Time: 23:47:42
(UTC+00:00)

SL-08 R/B - Pass Details

Date: 14 July 2020
Orbit: 674 x 739 km, 98.4° (Epoch: 14 August)

Event Time Altitude Azimuth Distance (km) Brightness Sun altitude
Exits shadow 03:01:16 - 197° (SSW) 2,645 5.8 -7.0°
Reaches altitude 10° 03:02:37 10° 204° (SSW) 2,163 5.3 -6.8°
Maximum altitude 03:06:45 29° 265° (W) 1,286 4.3 -6.3°
Drops below altitude 10° 03:10:58 10° 326° (NW) 2,214 6.0 -5.7°
Sets 03:13:33 0° 337° (NNW) 3,150 6.9 -5.4°
